Temp
-21 -22 -22 -22 -22 -22 -22 -22 -22 -22 -22 -22 -21 -21 -21 -22 -21 -21 -21 -21 -21 -21 -21 -20 -20 -20 -20 -19 -19 -20 -19 -17 -15 -15 -15 -16 -16 -16 -16 -16 -16 -15 -15
-22 -22 -22 -22 -22 -22 -22 -22 -22 -23 -23 -23 -22 -22 -22 -22 -22 -22 -23 -22 -21 -21 -21 -21 -21 -21 -20 -20 -20 -20 -20 -20 -18 -16 -16 -16 -16 -17 -17 -17 -17 -16 -16
-22 -22 -22 -22 -23 -23 -23 -23 -23 -23 -23 -23 -23 -23 -23 -23 -23 -23 -22 -22 -22 -22 -22 -22 -21 -21 -21 -21 -21 -21 -21 -21 -20 -18 -17 -18 -18 -18 -17 -18 -18 -18 -17
-23 -23 -24 -24 -24 -24 -24 -24 -24 -24 -24 -24 -24 -24 -24 -24 -24 -24 -23 -23 -23 -22 -22 -22 -22 -22 -22 -22 -22 -22 -22 -21 -21 -21 -20 -19 -19 -19 -20 -19 -19 -19 -19
-24 -24 -24 -24 -24 -25 -25 -25 -25 -26 -26 -26 -26 -27 -27 -27 -26 -26 -26 -25 -24 -24 -23 -23 -23 -22 -22 -22 -22 -22 -22 -22 -22 -21 -21 -20 -20 -20 -20 -21 -20 -21 -20
-25 -25 -25 -26 -26 -27 -28 -28 -29 -29 -30 -30 -30 -30 -30 -30 -30 -29 -29 -28 -27 -27 -26 -25 -25 -24 -24 -23 -23 -22 -22 -22 -23 -22 -22 -22 -21 -21 -21 -21 -21 -21 -21
-26 -27 -28 -29 -29 -30 -30 -31 -31 -31 -31 -31 -31 -31 -30 -30 -30 -30 -29 -29 -29 -28 -28 -27 -27 -27 -26 -26 -25 -25 -24 -24 -24 -24 -24 -23 -22 -23 -22 -21 -22 -22 -22
-29 -30 -31 -31 -31 -31 -31 -31 -31 -31 -31 -31 -31 -31 -31 -31 -31 -30 -30 -29 -29 -28 -28 -28 -27 -27 -27 -27 -27 -27 -27 -27 -27 -26 -25 -24 -24 -24 -25 -24 -23 -23 -22
-31 -31 -31 -31 -31 -32 -32 -32 -32 -32 -32 -32 -32 -31 -31 -31 -31 -30 -30 -30 -29 -29 -28 -28 -28 -28 -28 -28 -28 -28 -28 -28 -28 -28 -28 -27 -26 -25 -25 -25 -24 -24 -22
-32 -32 -32 -32 -32 -32 -32 -32 -32 -32 -32 -32 -32 -32 -32 -31 -31 -31 -31 -30 -30 -30 -30 -30 -30 -30 -30 -30 -30 -29 -29 -29 -29 -29 -28 -28 -28 -27 -27 -26 -25 -25 -24
-32 -32 -32 -32 -33 -33 -33 -32 -32 -32 -33 -32 -32 -32 -32 -32 -32 -33 -32 -31 -30 -30 -30 -30 -30 -30 -30 -30 -30 -30 -30 -30 -29 -29 -29 -28 -28 -28 -28 -28 -26 -26 -25
-33 -33 -33 -33 -33 -33 -33 -33 -33 -33 -33 -33 -33 -33 -33 -33 -33 -33 -32 -31 -31 -30 -30 -31 -31 -31 -30 -30 -30 -30 -29 -29 -29 -29 -28 -28 -29 -28 -28 -28 -28 -28 -27
-33 -33 -33 -33 -33 -33 -34 -34 -34 -34 -34 -33 -33 -33 -34 -34 -34 -33 -33 -32 -32 -31 -31 -30 -31 -31 -30 -30 -30 -30 -29 -29 -29 -29 -29 -29 -28 -29 -29 -28 -29 -29 -29
-33 -33 -33 -34 -34 -34 -34 -35 -35 -35 -35 -34 -34 -34 -34 -34 -34 -33 -32 -32 -32 -32 -31 -31 -31 -31 -31 -31 -31 -31 -31 -31 -30 -29 -29 -30 -29 -29 -29 -30 -29 -29 -29
-34 -34 -34 -35 -35 -35 -36 -36 -36 -36 -36 -35 -35 -35 -34 -34 -33 -33 -32 -32 -32 -32 -31 -31 -31 -31 -31 -31 -31 -31 -32 -32 -31 -30 -30 -30 -29 -29 -30 -30 -30 -30 -29
-35 -35 -35 -36 -36 -36 -36 -37 -37 -37 -37 -36 -35 -35 -34 -33 -33 -32 -32 -32 -32 -32 -32 -32 -32 -32 -32 -32 -32 -33 -33 -32 -31 -31 -31 -31 -31 -30 -30 -31 -31 -30 -30
-36 -36 -36 -37 -37 -37 -37 -37 -37 -38 -37 -37 -36 -35 -34 -34 -33 -33 -32 -32 -32 -32 -32 -32 -32 -33 -34 -34 -34 -34 -34 -33 -31 -31 -31 -31 -32 -32 -32 -32 -32 -31 -31
-37 -37 -37 -38 -38 -38 -38 -38 -37 -37 -37 -37 -36 -35 -34 -34 -33 -33 -32 -32 -32 -32 -32 -32 -33 -34 -34 -34 -35 -35 -35 -34 -33 -32 -32 -32 -32 -32 -32 -32 -32 -32 -31
-37 -38 -38 -38 -38 -38 -39 -39 -38 -38 -37 -36 -36 -36 -35 -34 -34 -33 -33 -33 -32 -32 -33 -33 -34 -35 -35 -35 -35 -35 -35 -35 -34 -34 -33 -33 -32 -32 -32 -32 -32 -32 -31
-38 -38 -38 -39 -39 -39 -39 -39 -38 -38 -37 -36 -35 -35 -35 -35 -34 -34 -34 -34 -34 -34 -34 -35 -35 -35 -35 -35 -35 -36 -36 -36 -35 -35 -34 -35 -34 -34 -34 -33 -32 -32 -31
-38 -39 -39 -39 -39 -39 -39 -39 -38 -37 -37 -36 -35 -35 -35 -34 -34 -34 -34 -34 -35 -35 -35 -35 -35 -35 -35 -35 -35 -36 -36 -36 -36 -36 -35 -35 -35 -35 -35 -34 -34 -34 -33
-39 -39 -39 -39 -39 -39 -39 -38 -38 -37 -36 -36 -35 -35 -35 -34 -34 -34 -35 -35 -36 -36 -36 -35 -35 -35 -35 -35 -35 -36 -37 -37 -37 -36 -36 -36 -35 -35 -35 -36 -36 -35 -35
-39 -39 -39 -39 -39 -39 -39 -38 -37 -37 -36 -36 -35 -35 -35 -35 -35 -35 -36 -36 -36 -37 -37 -36 -36 -35 -35 -35 -35 -36 -36 -37 -37 -37 -37 -37 -37 -36 -36 -36 -37 -37 -36
-40 -39 -39 -39 -39 -39 -38 -37 -37 -37 -36 -36 -35 -35 -35 -35 -36 -36 -36 -36 -37 -37 -37 -37 -36 -36 -35 -35 -35 -36 -36 -36 -36 -37 -37 -37 -37 -37 -37 -37 -37 -37 -37
-39 -39 -39 -39 -39 -38 -38 -37 -37 -36 -36 -36 -36 -35 -35 -36 -36 -37 -37 -37 -37 -37 -37 -37 -37 -37 -37 -36 -36 -36 -36 -36 -36 -36 -36 -37 -37 -38 -37 -37 -37 -37 -37
-39 -39 -39 -39 -39 -38 -37 -37 -37 -36 -36 -36 -36 -36 -36 -36 -36 -37 -37 -37 -37 -37 -37 -37 -37 -37 -37 -37 -36 -36 -36 -36 -36 -36 -36 -36 -37 -37 -37 -37 -37 -37 -37
Height
5639 5636 5633 5630 5627 5624 5621 5619 5616 5612 5608 5604 5601 5600 5596 5592 5587 5585 5584 5583 5583 5583 5583 5583 5584 5582 5584 5584 5584 5584 5585 5586 5593 5601 5608 5613 5618 5621 5623 5626 5629 5632 5636
5619 5616 5613 5610 5606 5602 5598 5594 5591 5586 5582 5579 5575 5573 5570 5567 5564 5561 5558 5556 5557 5557 5558 5557 5559 5559 5560 5559 5559 5560 5560 5562 5564 5570 5579 5583 5591 5594 5599 5604 5607 5611 5614
5598 5594 5590 5586 5581 5577 5573 5569 5564 5560 5556 5552 5548 5544 5540 5536 5534 5532 5530 5529 5528 5528 5528 5528 5531 5530 5531 5531 5531 5533 5536 5537 5538 5539 5550 5555 5560 5564 5571 5578 5584 5588 5591
5576 5572 5567 5561 5555 5550 5545 5541 5536 5531 5527 5523 5519 5514 5509 5506 5501 5498 5497 5497 5498 5498 5498 5498 5499 5499 5498 5498 5498 5501 5503 5507 5512 5514 5519 5529 5533 5539 5541 5548 5556 5564 5569
5555 5549 5543 5537 5530 5524 5518 5513 5508 5503 5499 5495 5491 5487 5481 5476 5471 5467 5463 5463 5464 5467 5469 5467 5466 5464 5463 5463 5464 5469 5469 5472 5477 5482 5492 5497 5507 5511 5516 5517 5522 5529 5540
5530 5524 5518 5511 5504 5499 5494 5489 5485 5481 5477 5472 5468 5463 5459 5454 5446 5441 5435 5433 5432 5431 5432 5432 5430 5429 5428 5428 5428 5430 5435 5438 5443 5447 5455 5462 5478 5480 5484 5488 5493 5498 5510
5506 5499 5494 5488 5482 5478 5474 5470 5466 5462 5458 5453 5447 5442 5437 5431 5423 5417 5412 5408 5406 5404 5401 5399 5398 5397 5396 5396 5396 5396 5399 5402 5406 5410 5413 5428 5438 5448 5450 5459 5463 5470 5482
5482 5477 5473 5469 5466 5462 5458 5453 5449 5444 5439 5433 5427 5420 5414 5407 5399 5393 5387 5384 5381 5378 5374 5371 5370 5371 5369 5365 5365 5367 5370 5374 5371 5372 5377 5392 5400 5413 5413 5423 5429 5438 5449
5465 5460 5456 5452 5448 5444 5440 5435 5430 5425 5419 5413 5407 5401 5393 5386 5377 5371 5365 5360 5357 5354 5348 5345 5343 5343 5341 5338 5340 5341 5344 5344 5342 5342 5345 5351 5361 5371 5378 5384 5393 5402 5420
5447 5443 5439 5435 5431 5426 5421 5417 5412 5406 5400 5394 5388 5379 5372 5366 5358 5351 5344 5339 5337 5333 5330 5327 5324 5323 5321 5317 5316 5316 5318 5318 5315 5315 5317 5320 5326 5335 5342 5345 5364 5368 5383
5433 5427 5423 5419 5414 5410 5405 5399 5393 5387 5380 5375 5369 5362 5354 5346 5340 5334 5329 5324 5321 5320 5317 5314 5311 5307 5304 5300 5296 5294 5291 5291 5289 5287 5288 5291 5294 5302 5310 5315 5325 5332 5347
5419 5414 5408 5403 5397 5392 5388 5382 5374 5367 5361 5356 5350 5345 5337 5331 5325 5320 5315 5310 5306 5304 5302 5299 5296 5292 5286 5281 5275 5270 5265 5260 5258 5254 5254 5260 5263 5269 5278 5285 5292 5297 5310
5404 5399 5394 5389 5383 5376 5371 5364 5358 5350 5343 5338 5332 5327 5323 5318 5313 5308 5303 5298 5294 5290 5286 5284 5279 5273 5268 5262 5252 5244 5236 5230 5223 5219 5218 5223 5228 5236 5244 5252 5262 5270 5279
5389 5383 5378 5373 5367 5360 5355 5348 5341 5334 5328 5322 5316 5312 5309 5306 5301 5297 5292 5287 5281 5276 5272 5268 5262 5255 5249 5240 5231 5220 5208 5199 5193 5191 5190 5192 5194 5202 5213 5225 5232 5244 5253
5373 5368 5362 5357 5351 5345 5339 5332 5325 5319 5312 5307 5303 5299 5297 5294 5289 5284 5279 5273 5267 5262 5257 5251 5245 5238 5230 5220 5210 5199 5188 5178 5171 5167 5166 5166 5170 5175 5185 5198 5207 5218 5227
5355 5350 5345 5340 5334 5329 5323 5319 5310 5304 5298 5292 5290 5287 5285 5280 5275 5270 5265 5259 5253 5247 5242 5234 5227 5219 5211 5202 5191 5181 5171 5164 5158 5154 5151 5150 5152 5156 5163 5172 5183 5196 5207
5338 5333 5328 5323 5318 5313 5308 5303 5300 5294 5283 5280 5279 5276 5273 5269 5264 5259 5253 5246 5239 5233 5226 5219 5211 5203 5196 5186 5176 5167 5159 5152 5147 5144 5143 5141 5142 5143 5146 5153 5164 5176 5188
5322 5317 5313 5308 5303 5298 5293 5288 5283 5279 5276 5272 5267 5266 5262 5258 5254 5248 5242 5234 5226 5218 5211 5204 5197 5190 5184 5176 5165 5157 5151 5145 5140 5137 5134 5133 5132 5134 5137 5143 5150 5160 5169
5307 5302 5299 5294 5289 5284 5278 5273 5268 5263 5261 5261 5259 5255 5252 5247 5242 5237 5230 5222 5214 5206 5197 5189 5183 5178 5173 5166 5156 5148 5142 5138 5134 5131 5129 5128 5127 5127 5129 5133 5140 5147 5153
5292 5289 5285 5281 5275 5269 5263 5258 5254 5251 5250 5249 5248 5245 5242 5237 5232 5225 5218 5210 5202 5193 5185 5177 5171 5167 5163 5157 5149 5140 5134 5131 5128 5126 5124 5123 5123 5124 5125 5126 5130 5135 5140
5278 5275 5271 5266 5260 5255 5249 5245 5241 5240 5240 5239 5238 5235 5231 5226 5221 5215 5207 5199 5192 5184 5176 5167 5161 5158 5154 5148 5142 5135 5128 5123 5120 5118 5116 5115 5115 5115 5116 5118 5121 5125 5128
5264 5260 5256 5252 5246 5241 5237 5233 5232 5232 5231 5230 5228 5224 5221 5216 5211 5204 5197 5190 5182 5176 5169 5161 5155 5151 5147 5141 5134 5129 5123 5117 5113 5110 5108 5106 5105 5105 5106 5107 5109 5111 5114
5248 5245 5242 5238 5233 5230 5226 5224 5224 5224 5223 5221 5219 5216 5211 5207 5201 5196 5189 5182 5177 5170 5163 5155 5148 5143 5139 5134 5129 5124 5119 5113 5108 5104 5101 5099 5098 5098 5097 5097 5099 5101 5103
5232 5230 5227 5224 5221 5219 5217 5216 5216 5216 5215 5213 5210 5207 5203 5199 5193 5188 5182 5177 5170 5164 5158 5151 5143 5137 5132 5128 5123 5118 5114 5109 5104 5100 5096 5093 5091 5091 5091 5092 5092 5093 5095
5214 5213 5213 5211 5209 5208 5208 5208 5209 5208 5207 5205 5202 5199 5196 5191 5186 5181 5176 5172 5166 5159 5153 5146 5140 5134 5128 5123 5119 5114 5110 5106 5101 5096 5091 5089 5087 5086 5086 5086 5087 5088 5090
5194 5195 5197 5198 5197 5198 5200 5201 5201 5200 5199 5197 5195 5191 5188 5183 5179 5174 5170 5166 5161 5155 5150 5144 5138 5132 5126 5121 5115 5111 5106 5102 5098 5093 5088 5084 5083 5083 5083 5082 5083 5085 5086
Wind_Speed
72 73 75 77 78 79 79 80 84 89 90 91 90 89 91 91 93 96 94 93 87 84 85 88 89 88 88 88 87 86 90 96 104 100 95 89 85 81 79 80 80 79 77
76 78 79 81 82 83 85 87 88 90 92 93 93 93 93 93 94 97 96 96 97 91 89 91 93 93 93 92 90 90 93 91 97 104 98 97 92 88 85 82 81 82 81
83 84 85 86 87 88 90 91 92 92 94 95 96 96 97 97 97 98 101 103 103 105 106 103 104 103 102 99 99 98 95 96 98 101 99 95 95 94 93 89 83 82 83
85 86 88 88 89 89 90 91 91 92 92 92 93 93 94 95 96 98 99 101 104 104 106 109 109 107 106 105 105 104 103 101 99 101 102 98 96 91 92 91 90 84 83
84 86 86 87 89 90 91 90 89 88 87 86 85 84 85 86 89 92 95 97 100 101 102 104 107 109 110 110 109 108 107 106 106 105 103 105 103 100 94 91 90 87 86
85 87 88 88 87 85 81 77 74 71 70 69 70 72 72 74 77 79 83 85 87 89 91 93 95 98 103 108 111 113 113 112 110 109 109 109 104 105 103 99 96 92 88
86 84 81 76 73 70 67 66 64 64 65 67 71 74 76 76 78 78 79 79 79 79 81 83 85 87 90 93 96 102 108 110 112 111 112 111 110 106 107 107 102 99 92
75 69 66 64 64 62 62 63 64 66 69 72 74 76 75 76 76 75 75 74 73 72 73 74 74 74 76 81 85 88 90 93 98 103 109 109 109 107 107 106 105 103 101
64 62 61 61 61 61 63 65 67 69 71 75 75 75 74 72 71 69 70 70 70 69 69 69 69 70 70 73 77 78 80 82 87 92 95 100 105 109 110 108 110 108 105
61 60 60 61 62 63 64 65 68 70 72 74 70 71 68 65 64 62 61 62 58 53 49 48 48 48 49 53 57 61 65 69 78 87 91 94 95 100 108 112 112 111 109
59 61 62 63 63 64 65 67 69 71 71 70 67 63 62 59 52 50 50 47 45 42 42 45 48 51 56 62 64 66 68 69 73 79 83 89 93 94 96 104 111 113 110
58 60 62 63 64 65 66 68 70 70 70 67 63 58 54 46 46 46 45 41 41 43 46 50 53 57 58 63 69 73 76 78 84 85 86 88 89 91 92 94 99 106 109
58 60 60 62 64 66 67 68 69 70 68 65 59 53 42 42 42 42 43 44 44 43 44 45 47 50 55 60 66 71 76 80 80 78 79 81 85 89 86 90 93 95 100
59 60 63 64 65 65 66 68 67 66 63 61 54 42 38 39 41 40 41 42 44 45 46 47 49 52 56 61 64 66 69 70 69 67 66 70 76 79 86 82 84 89 93
61 63 63 62 63 64 65 64 63 61 62 56 45 37 37 37 38 38 40 42 45 47 48 50 51 54 56 60 61 60 57 57 57 56 54 59 64 68 73 82 79 74 81
63 62 61 62 63 63 62 59 59 59 57 51 37 35 35 37 38 40 42 45 47 49 51 51 52 53 55 57 57 54 49 45 42 39 40 42 46 53 57 71 78 76 71
61 61 60 60 60 60 58 58 55 51 54 46 35 34 36 36 38 41 44 48 50 51 52 52 52 50 50 53 50 45 43 40 34 33 34 34 34 38 44 56 68 72 68
60 59 57 57 55 55 55 56 56 54 45 38 37 34 35 35 38 42 46 49 51 52 53 53 49 43 42 45 46 40 36 36 29 29 28 29 31 37 42 47 54 61 64
55 51 48 50 52 55 57 56 52 46 37 32 32 34 34 36 39 42 45 48 50 52 52 48 41 36 37 39 43 39 33 30 27 25 25 26 27 29 32 37 42 47 53
47 45 47 49 52 54 55 53 47 39 30 29 28 30 32 37 39 42 45 46 48 48 45 42 35 32 34 35 39 36 32 29 27 27 23 23 25 25 26 29 33 38 44
43 46 48 51 53 53 51 48 39 29 27 27 28 28 32 35 38 40 41 43 43 41 41 39 31 29 31 32 32 34 30 28 27 28 29 28 28 27 29 33 36 39 42
48 50 51 54 53 48 46 37 28 25 24 25 27 29 31 33 36 37 38 38 38 37 38 34 27 27 28 29 30 31 29 26 25 25 26 28 30 31 30 30 31 34 38
51 52 53 55 49 42 38 29 24 23 23 25 26 28 29 31 32 33 33 35 34 33 35 35 28 28 29 28 28 25 24 24 23 23 24 25 26 29 29 28 28 30 34
50 51 53 53 45 37 33 25 23 22 22 24 25 26 27 28 29 30 30 32 33 30 30 32 31 27 27 26 27 24 22 24 24 23 21 21 22 23 25 27 28 30 32
56 55 53 46 39 33 27 23 22 20 22 22 23 23 25 26 26 27 28 28 28 28 28 28 29 28 25 24 24 22 21 21 23 24 21 20 17 17 20 21 24 27 30
58 53 46 37 32 28 25 22 20 19 20 20 21 21 24 25 26 27 27 26 27 27 27 26 25 26 27 25 23 22 20 20 21 23 19 17 17 17 17 15 12 15 23
Wind_Direction
281 282 282 282 282 282 280 276 273 275 278 279 278 277 278 278 277 277 274 270 268 268 269 266 266 267 268 268 266 265 265 264 259 258 259 260 258 256 256 257 258 257 256
284 284 285 284 284 283 282 281 281 281 281 280 279 278 276 274 272 272 272 271 269 268 268 270 271 270 268 267 267 266 265 263 263 259 260 259 257 256 255 255 255 257 257
286 287 286 285 285 284 283 283 282 281 281 280 280 279 278 277 275 272 269 269 270 271 271 270 269 271 267 267 267 266 263 262 260 258 257 258 260 261 256 255 255 254 254
287 287 287 286 286 285 285 284 283 282 282 281 280 280 279 278 277 275 273 271 270 270 269 269 269 269 268 267 267 266 265 263 260 258 256 255 256 259 262 261 258 255 253
286 286 287 287 287 287 287 286 286 286 286 285 285 284 284 283 281 280 278 277 275 272 270 269 268 268 268 267 266 265 264 263 263 261 259 257 255 257 259 261 261 259 255
291 291 290 290 289 289 289 288 288 287 287 287 287 286 285 285 284 282 281 279 277 276 274 272 269 267 266 266 266 265 263 262 261 260 260 259 258 257 257 258 258 258 257
291 290 289 288 288 288 288 288 288 287 288 288 289 289 290 289 287 285 284 282 280 278 275 272 270 269 267 265 263 262 262 262 262 259 257 257 256 255 256 256 256 255 254
290 289 287 287 287 287 286 286 287 289 291 292 292 294 293 291 290 288 287 286 284 281 278 276 273 271 269 267 265 264 262 261 261 259 259 257 254 252 252 252 252 252 251
288 288 288 289 290 290 290 291 291 292 293 293 294 294 293 293 292 290 288 286 284 282 280 278 275 273 271 269 267 265 262 261 260 260 259 257 255 253 251 249 249 250 250
289 289 290 291 291 291 292 293 293 294 294 294 295 296 295 294 292 290 288 287 287 285 283 281 279 278 276 276 276 274 269 267 264 261 259 257 254 251 251 251 247 248 249
288 289 290 291 291 292 293 293 294 295 296 297 297 297 298 294 290 288 290 290 287 284 281 279 278 277 279 281 281 278 274 271 270 268 263 258 255 252 249 249 249 248 246
287 288 289 291 292 292 294 295 296 298 299 298 300 299 296 288 289 293 294 295 294 290 286 283 281 283 283 281 281 280 276 275 278 273 265 259 256 252 249 247 247 247 247
288 288 289 290 292 294 295 296 298 299 299 299 301 298 287 286 293 297 298 299 298 296 294 292 292 290 289 290 289 285 283 282 279 274 267 261 254 251 249 246 244 244 246
289 290 291 291 292 294 295 297 298 298 298 301 300 291 285 290 293 294 294 296 297 298 299 298 296 294 293 293 294 294 289 285 281 276 269 263 257 251 245 246 245 242 242
291 290 289 291 293 295 296 297 296 298 299 301 295 284 285 288 292 296 298 298 299 300 301 300 299 298 298 300 301 299 294 290 287 282 275 265 259 254 247 240 242 242 240
289 290 292 294 296 296 295 295 298 300 299 299 290 288 290 294 297 301 302 304 304 305 304 304 303 303 304 307 307 303 300 294 290 288 281 272 263 255 250 239 237 241 241
291 293 295 295 294 294 294 295 296 298 298 293 287 291 293 295 299 301 304 305 305 305 305 305 305 303 306 312 311 306 306 304 296 289 280 272 266 258 247 240 236 238 240
292 293 292 292 292 294 295 296 296 295 291 283 289 291 294 298 300 302 303 304 307 307 306 305 304 301 308 317 316 308 305 304 306 300 284 273 267 259 249 241 238 238 241
291 290 291 294 296 296 297 298 297 291 282 276 285 294 297 302 303 305 306 307 309 308 308 309 303 297 307 319 321 312 303 300 301 306 303 285 270 258 252 243 241 240 239
286 290 295 299 300 299 297 297 295 287 273 279 287 292 299 304 308 310 310 311 311 313 316 312 301 296 307 314 325 318 305 295 288 285 280 279 279 272 261 249 244 243 243
288 295 297 303 303 299 297 297 289 274 275 285 291 296 300 305 310 311 313 314 316 320 321 316 303 302 307 314 318 326 316 304 292 282 275 270 267 267 267 264 259 254 248
287 293 298 304 302 298 297 291 275 269 279 290 296 301 305 310 312 314 318 320 321 324 327 319 301 304 307 315 315 321 325 317 305 293 286 277 267 262 260 259 257 253 250
285 289 295 302 299 294 291 277 264 272 284 292 299 303 309 312 316 318 320 324 322 324 332 331 313 304 306 312 319 320 325 326 323 312 297 286 280 270 259 254 251 249 245
285 288 292 298 293 285 281 259 264 275 287 294 300 305 311 315 319 321 323 324 325 324 328 337 334 319 308 309 317 319 318 323 326 312 311 299 286 277 270 263 256 249 244
282 285 288 287 284 276 257 254 266 279 289 295 299 307 315 315 322 323 325 325 331 334 329 331 339 339 329 320 320 321 323 319 321 326 308 300 296 292 280 273 266 260 253
277 278 279 273 271 254 244 255 267 281 288 295 298 311 315 320 323 323 321 323 328 332 336 337 333 337 342 337 329 328 328 327 324 330 324 309 291 291 295 285 271 273 264